Track TOPEX/POSEIDON now! 10-day predictions TOPEX/POSEIDON is classified as:
1 22076U 92052A 19049.90959889 -.00000030 +00000-0 +13540-3 0 9995 2 22076 066.0400 290.1330 0007629 273.3700 166.7401 12.81020114240864